Погода в Приисковом

Россия / Республика Хакасия     54°39′10″N   88°41′42″E
темп.,
°C
ветер,
м/с
пор.,
м/с
влажн.,
%
обл.,
%
осадки,
мм/ч
давл.,
гПа
погр.,
м
16 апреля, пт
пт1601:000юз299994 0.0 1022435
04:00+1зюз3139999 0.0 1019725
07:00+1юз41499100 0.0 1018667
10:00+2зюз51599100 0.2 1016953
13:00+3зюз7169999 0.3 1015993
16:00+4зюз81796100 0.0 1013982
19:00+4зюз61695100 0.0 1012870
22:00+4зюз71694100 0.0 10101027
17 апреля, сб
сб1701:00+3з71697100 0.3 10091174
04:00+1сз3995100 0.6 1012910
07:00−4ссз2391100 1.9 1018410
10:00−2ссз227487 0.1 1019894
13:000ссз126261 0.1 10181285
16:00−1всв1179100 0.4 1018774
19:00−4всв2294100 2.2 1019383
22:00−5всв1195100 1.5 1021225
18 апреля, вс
вс1801:00−7зюз009892 1.9 102224
04:00−9юз219859 0.1 102330
07:00−7юз2388100 0.1 1022152
10:00−4зюз2567100 0.0 1019835
13:00−2зюз4663100 0.0 10181143
16:00−1юз4767100 0.0 10161190
19:00−2юз3879100 0.1 1014963
22:00−3юз31284100 0.0 1013817
19 апреля, пн
пн1901:00−3ю3996100 0.3 1008400
04:000юз61696100 3.1 10021281
07:00−1зюз51598100 9.6 10011373
10:00−5зюз8208835 5.1 10031560
13:00−4зюз10199098 6.1 10061388
16:00−4зюз10168871 1.0 10111203
19:00−6з9148957 1.4 10151085
22:00−7з5129193 0.3 1019791
20 апреля, вт
вт2001:00−11юз259595 0.3 1022156
04:00−11юз239696 0.1 102250
07:00−10юз129598 0.1 102275
10:00−6зюз1281100 0.1 1021887
13:00−4з1275100 0.6 10201162
16:00−3ссз1278100 1.4 1020848
19:00−6св2595100 5.4 1022635
22:00−8св2796100 1.7 1024715